Location: Roland
(31.1349°N, 85.4372°W)
Time: 17:33:30
(UTC+00:00)

Transit 2A - Pass Details

Date: 25 April 2021
Orbit: 602 x 957 km, 66.7° (Epoch: 16 May)

Event Time Altitude Azimuth Distance (km) Brightness Sun altitude
Rises 09:54:24 0° 171° (S) 3,185 9.0 -14.5°
Reaches altitude 10° 09:57:25 10° 155° (SSE) 2,195 8.4 -13.9°
Maximum altitude 10:00:58 20° 109° (ESE) 1,562 8.2 -13.2°
Drops below altitude 10° 10:04:20 10° 62° (ENE) 2,062 9.8 -12.6°
Sets 10:07:03 0° 45° (NE) 2,930 10.5 -12.0°
